Wetterdaten: Dienstag, 07.05.2013
Datum Zeit Temperatur Luftfeuchte Luftdruck Regen Wind Richtung Richtung Taupunkt Windchill Windben
07.05.2013 00:00 11,4 C 87 % 1017,8 hPa 0,0 l/m 3,1 km/h (1 Bft) O 90 9,3 C 11,4 C 3,4 km/h (1 Bft)
07.05.2013 00:05 11,4 C 87 % 1018,0 hPa 0,0 l/m 2,4 km/h (1 Bft) O-SO 112 9,3 C 11,4 C 0,0 km/h (0 Bft)
07.05.2013 00:10 11,2 C 87 % 1018,0 hPa 0,0 l/m 1,0 km/h (0 Bft) O-NO 67 9,1 C 11,3 C 0,0 km/h (0 Bft)
07.05.2013 00:15 11,2 C 87 % 1018,0 hPa 0,0 l/m 0,2 km/h (0 Bft) O-SO 112 9,1 C 11,2 C 0,0 km/h (0 Bft)
07.05.2013 00:20 11,2 C 88 % 1018,0 hPa 0,0 l/m 0,3 km/h (0 Bft) O-NO 67 9,3 C 11,1 C 2,1 km/h (1 Bft)
07.05.2013 00:25 11,2 C 87 % 1018,1 hPa 0,0 l/m 0,2 km/h (0 Bft) N-NO 22 9,1 C 11,1 C 0,0 km/h (0 Bft)
07.05.2013 00:30 11,1 C 87 % 1018,1 hPa 0,0 l/m 0,2 km/h (0 Bft) O 90 9,0 C 11,1 C 0,0 km/h (0 Bft)
07.05.2013 00:35 11,1 C 88 % 1018,1 hPa 0,0 l/m 0,5 km/h (0 Bft) NO 45 9,2 C 11,1 C 3,1 km/h (1 Bft)
07.05.2013 00:40 11,1 C 88 % 1018,1 hPa 0,0 l/m 1,0 km/h (0 Bft) O 90 9,2 C 11,1 C 0,0 km/h (0 Bft)
07.05.2013 00:45 11,1 C 88 % 1018,1 hPa 0,0 l/m 0,8 km/h (0 Bft) SO 135 9,2 C 11,1 C 3,1 km/h (1 Bft)
07.05.2013 00:50 11,2 C 87 % 1018,1 hPa 0,0 l/m 0,6 km/h (0 Bft) S-SO 157 9,1 C 11,1 C 0,0 km/h (0 Bft)
07.05.2013 00:55 11,2 C 87 % 1018,1 hPa 0,0 l/m 1,1 km/h (1 Bft) S 180 9,1 C 11,1 C 4,3 km/h (1 Bft)
07.05.2013 01:00 11,2 C 87 % 1018,1 hPa 0,0 l/m 1,6 km/h (1 Bft) S 180 9,1 C 11,3 C 1,9 km/h (1 Bft)
07.05.2013 01:05 11,2 C 87 % 1017,9 hPa 0,0 l/m 1,1 km/h (1 Bft) O-NO 67 9,1 C 11,3 C 4,3 km/h (1 Bft)
07.05.2013 01:10 11,2 C 87 % 1017,9 hPa 0,0 l/m 0,8 km/h (0 Bft) O 90 9,1 C 11,3 C 0,0 km/h (0 Bft)
07.05.2013 01:15 11,2 C 87 % 1017,9 hPa 0,0 l/m 1,1 km/h (1 Bft) S 180 9,1 C 11,2 C 5,8 km/h (2 Bft)
07.05.2013 01:20 11,2 C 87 % 1017,9 hPa 0,0 l/m 2,1 km/h (1 Bft) SO 135 9,1 C 11,3 C 6,4 km/h (2 Bft)
07.05.2013 01:25 11,2 C 87 % 1017,9 hPa 0,0 l/m 3,1 km/h (1 Bft) S-SO 157 9,1 C 11,3 C 2,7 km/h (1 Bft)
07.05.2013 01:30 11,2 C 87 % 1017,9 hPa 0,0 l/m 3,2 km/h (1 Bft) S 180 9,1 C 11,4 C 6,0 km/h (2 Bft)
07.05.2013 01:35 11,2 C 86 % 1017,9 hPa 0,0 l/m 2,9 km/h (1 Bft) O-SO 112 8,9 C 11,4 C 2,4 km/h (1 Bft)
07.05.2013 01:40 11,1 C 86 % 1017,9 hPa 0,0 l/m 2,9 km/h (1 Bft) S-SO 157 8,8 C 11,3 C 3,9 km/h (1 Bft)
07.05.2013 01:45 11,0 C 86 % 1017,9 hPa 0,0 l/m 2,4 km/h (1 Bft) S 180 8,7 C 11,2 C 4,2 km/h (1 Bft)
07.05.2013 01:50 11,0 C 86 % 1017,9 hPa 0,0 l/m 2,4 km/h (1 Bft) O-SO 112 8,7 C 11,1 C 1,9 km/h (1 Bft)
07.05.2013 01:55 10,9 C 87 % 1017,9 hPa 0,0 l/m 1,9 km/h (1 Bft) O-SO 112 8,8 C 11,1 C 2,1 km/h (1 Bft)
07.05.2013 02:00 11,0 C 86 % 1017,9 hPa 0,0 l/m 1,4 km/h (1 Bft) SO 135 8,7 C 11,1 C 4,7 km/h (1 Bft)
07.05.2013 02:05 11,0 C 86 % 1017,6 hPa 0,0 l/m 2,4 km/h (1 Bft) S-SO 157 8,7 C 11,1 C 2,6 km/h (1 Bft)
07.05.2013 02:10 10,9 C 86 % 1017,6 hPa 0,0 l/m 2,6 km/h (1 Bft) S-SO 157 8,7 C 11,1 C 6,9 km/h (2 Bft)
07.05.2013 02:15 10,9 C 86 % 1017,6 hPa 0,0 l/m 2,3 km/h (1 Bft) S-SO 157 8,7 C 11,1 C 2,9 km/h (1 Bft)
07.05.2013 02:20 10,9 C 86 % 1017,6 hPa 0,0 l/m 2,6 km/h (1 Bft) S 180 8,7 C 11,0 C 4,3 km/h (1 Bft)
07.05.2013 02:25 10,9 C 86 % 1017,5 hPa 0,0 l/m 2,7 km/h (1 Bft) SO 135 8,7 C 11,0 C 4,7 km/h (1 Bft)
07.05.2013 02:30 10,8 C 86 % 1017,5 hPa 0,0 l/m 3,1 km/h (1 Bft) O 90 8,6 C 10,9 C 3,9 km/h (1 Bft)
07.05.2013 02:35 10,8 C 86 % 1017,5 hPa 0,0 l/m 3,1 km/h (1 Bft) O-SO 112 8,6 C 10,9 C 7,1 km/h (2 Bft)
07.05.2013 02:40 10,7 C 86 % 1017,5 hPa 0,0 l/m 2,4 km/h (1 Bft) O 90 8,5 C 10,9 C 0,0 km/h (0 Bft)
07.05.2013 02:45 10,7 C 86 % 1017,6 hPa 0,0 l/m 1,3 km/h (1 Bft) SO 135 8,5 C 10,8 C 0,0 km/h (0 Bft)
07.05.2013 02:50 10,7 C 87 % 1017,6 hPa 0,0 l/m 0,6 km/h (0 Bft) NO 45 8,6 C 10,7 C 2,3 km/h (1 Bft)
07.05.2013 02:55 10,6 C 87 % 1017,6 hPa 0,0 l/m 1,1 km/h (1 Bft) NO 45 8,5 C 10,7 C 2,1 km/h (1 Bft)
07.05.2013 03:00 10,6 C 87 % 1017,6 hPa 0,0 l/m 1,3 km/h (1 Bft) O 90 8,5 C 10,6 C 1,8 km/h (1 Bft)
07.05.2013 03:05 10,5 C 87 % 1017,6 hPa 0,0 l/m 1,1 km/h (1 Bft) SO 135 8,4 C 10,6 C 0,0 km/h (0 Bft)
07.05.2013 03:10 10,5 C 87 % 1017,6 hPa 0,0 l/m 0,3 km/h (0 Bft) S-SO 157 8,4 C 10,6 C 0,0 km/h (0 Bft)
07.05.2013 03:15 10,5 C 87 % 1017,6 hPa 0,0 l/m 0,6 km/h (0 Bft) SO 135 8,4 C 10,6 C 2,4 km/h (1 Bft)
07.05.2013 03:20 10,4 C 87 % 1017,6 hPa 0,0 l/m 1,3 km/h (1 Bft) O-SO 112 8,3 C 10,6 C 0,0 km/h (0 Bft)
07.05.2013 03:25 10,4 C 87 % 1017,5 hPa 0,0 l/m 1,1 km/h (1 Bft) O-SO 112 8,3 C 10,5 C 0,0 km/h (0 Bft)
07.05.2013 03:30 10,4 C 87 % 1017,5 hPa 0,0 l/m 0,3 km/h (0 Bft) O 90 8,3 C 10,4 C 1,6 km/h (1 Bft)
07.05.2013 03:35 10,4 C 87 % 1017,5 hPa 0,0 l/m 0,5 km/h (0 Bft) O 90 8,3 C 10,3 C 1,8 km/h (1 Bft)
07.05.2013 03:40 10,4 C 87 % 1017,5 hPa 0,0 l/m 1,1 km/h (1 Bft) O 90 8,3 C 10,3 C 2,3 km/h (1 Bft)
07.05.2013 03:45 10,4 C 87 % 1017,4 hPa 0,0 l/m 1,6 km/h (1 Bft) NO 45 8,3 C 10,3 C 2,3 km/h (1 Bft)
07.05.2013 03:50 10,2 C 87 % 1017,4 hPa 0,0 l/m 1,1 km/h (1 Bft) NO 45 8,1 C 10,3 C 0,0 km/h (0 Bft)
07.05.2013 03:55 10,2 C 87 % 1017,4 hPa 0,0 l/m 1,0 km/h (0 Bft) NO 45 8,1 C 10,2 C 2,4 km/h (1 Bft)
07.05.2013 04:00 10,2 C 87 % 1017,4 hPa 0,0 l/m 1,1 km/h (1 Bft) O 90 8,1 C 10,2 C 0,0 km/h (0 Bft)
07.05.2013 04:05 10,2 C 88 % 1017,5 hPa 0,0 l/m 1,1 km/h (1 Bft) W-NW 292 8,3 C 10,2 C 0,0 km/h (0 Bft)
07.05.2013 04:10 10,2 C 88 % 1017,5 hPa 0,0 l/m 0,8 km/h (0 Bft) SO 135 8,3 C 10,2 C 0,0 km/h (0 Bft)
07.05.2013 04:15 10,2 C 88 % 1017,5 hPa 0,0 l/m 1,0 km/h (0 Bft) O 90 8,3 C 10,2 C 2,4 km/h (1 Bft)
07.05.2013 04:20 10,4 C 88 % 1017,5 hPa 0,0 l/m 2,1 km/h (1 Bft) SO 135 8,5 C 10,3 C 2,9 km/h (1 Bft)
07.05.2013 04:25 10,5 C 88 % 1017,4 hPa 0,0 l/m 2,7 km/h (1 Bft) SO 135 8,6 C 10,5 C 7,4 km/h (2 Bft)
07.05.2013 04:30 10,5 C 87 % 1017,4 hPa 0,0 l/m 3,5 km/h (1 Bft) S 180 8,4 C 10,6 C 4,5 km/h (1 Bft)
07.05.2013 04:35 10,3 C 87 % 1017,4 hPa 0,0 l/m 3,7 km/h (1 Bft) O-SO 112 8,2 C 10,6 C 8,4 km/h (2 Bft)
07.05.2013 04:40 10,2 C 87 % 1017,4 hPa 0,0 l/m 3,1 km/h (1 Bft) O 90 8,1 C 10,4 C 2,1 km/h (1 Bft)
07.05.2013 04:45 10,2 C 87 % 1017,4 hPa 0,0 l/m 2,7 km/h (1 Bft) O-SO 112 8,1 C 10,3 C 9,2 km/h (2 Bft)
07.05.2013 04:50 10,0 C 87 % 1017,4 hPa 0,0 l/m 2,7 km/h (1 Bft) S-SO 157 7,9 C 10,2 C 5,8 km/h (2 Bft)
07.05.2013 04:55 9,9 C 87 % 1017,4 hPa 0,0 l/m 2,6 km/h (1 Bft) SO 135 7,8 C 10,1 C 2,9 km/h (1 Bft)
07.05.2013 05:00 9,8 C 88 % 1017,4 hPa 0,0 l/m 2,6 km/h (1 Bft) SO 135 7,9 C 10,0 C 3,9 km/h (1 Bft)
07.05.2013 05:05 9,7 C 88 % 1017,3 hPa 0,0 l/m 2,9 km/h (1 Bft) SO 135 7,8 C 10,0 C 2,9 km/h (1 Bft)
07.05.2013 05:10 9,7 C 88 % 1017,3 hPa 0,0 l/m 2,3 km/h (1 Bft) S-SO 157 7,8 C 9,8 C 0,0 km/h (0 Bft)
07.05.2013 05:15 9,8 C 88 % 1017,3 hPa 0,0 l/m 2,1 km/h (1 Bft) O-SO 112 7,9 C 9,7 C 2,3 km/h (1 Bft)
07.05.2013 05:20 9,9 C 88 % 1017,3 hPa 0,0 l/m 1,8 km/h (1 Bft) S 180 8,0 C 9,7 C 0,0 km/h (0 Bft)
07.05.2013 05:25 9,9 C 88 % 1017,3 hPa 0,0 l/m 1,8 km/h (1 Bft) S 180 8,0 C 9,8 C 3,9 km/h (1 Bft)
07.05.2013 05:30 10,0 C 88 % 1017,3 hPa 0,0 l/m 1,6 km/h (1 Bft) O-SO 112 8,1 C 9,9 C 1,6 km/h (1 Bft)
07.05.2013 05:35 10,0 C 88 % 1017,3 hPa 0,0 l/m 1,3 km/h (1 Bft) S 180 8,1 C 10,0 C 1,8 km/h (1 Bft)
07.05.2013 05:40 9,8 C 88 % 1017,3 hPa 0,0 l/m 1,1 km/h (1 Bft) S 180 7,9 C 10,0 C 0,0 km/h (0 Bft)
07.05.2013 05:45 9,8 C 88 % 1017,3 hPa 0,0 l/m 0,8 km/h (0 Bft) S 180 7,9 C 9,9 C 0,0 km/h (0 Bft)
07.05.2013 05:50 9,9 C 88 % 1017,3 hPa 0,0 l/m 0,5 km/h (0 Bft) NO 45 8,0 C 10,0 C 0,0 km/h (0 Bft)
07.05.2013 05:55 10,0 C 88 % 1017,3 hPa 0,0 l/m 0,2 km/h (0 Bft) NO 45 8,1 C 10,0 C 0,0 km/h (0 Bft)
07.05.2013 06:00 10,2 C 88 % 1017,3 hPa 0,0 l/m 0,2 km/h (0 Bft) S 180 8,3 C 10,2 C 0,0 km/h (0 Bft)
07.05.2013 06:05 10,2 C 88 % 1017,4 hPa 0,0 l/m 0,3 km/h (0 Bft) S-SO 157 8,3 C 10,2 C 1,6 km/h (1 Bft)
07.05.2013 06:10 10,4 C 88 % 1017,4 hPa 0,0 l/m 0,6 km/h (0 Bft) O 90 8,5 C 10,3 C 2,6 km/h (1 Bft)
07.05.2013 06:15 10,4 C 88 % 1017,4 hPa 0,0 l/m 0,8 km/h (0 Bft) S-SO 157 8,5 C 10,5 C 2,3 km/h (1 Bft)
07.05.2013 06:20 10,5 C 88 % 1017,4 hPa 0,0 l/m 0,6 km/h (0 Bft) S-SO 157 8,6 C 10,6 C 1,6 km/h (1 Bft)
07.05.2013 06:25 10,5 C 88 % 1017,6 hPa 0,0 l/m 0,6 km/h (0 Bft) S 180 8,6 C 10,6 C 2,9 km/h (1 Bft)
07.05.2013 06:30 10,6 C 88 % 1017,6 hPa 0,0 l/m 0,8 km/h (0 Bft) S 180 8,7 C 10,7 C 2,3 km/h (1 Bft)
07.05.2013 06:35 10,7 C 88 % 1017,6 hPa 0,0 l/m 1,0 km/h (0 Bft) S-SO 157 8,8 C 10,8 C 0,0 km/h (0 Bft)
07.05.2013 06:40 10,7 C 88 % 1017,6 hPa 0,0 l/m 1,3 km/h (1 Bft) S 180 8,8 C 10,9 C 1,6 km/h (1 Bft)
07.05.2013 06:45 10,7 C 87 % 1018,1 hPa 0,0 l/m 1,3 km/h (1 Bft) SO 135 8,6 C 10,9 C 3,9 km/h (1 Bft)
07.05.2013 06:50 10,8 C 87 % 1018,1 hPa 0,0 l/m 1,3 km/h (1 Bft) SO 135 8,7 C 10,9 C 0,0 km/h (0 Bft)
07.05.2013 06:55 10,8 C 87 % 1018,1 hPa 0,0 l/m 1,6 km/h (1 Bft) O-SO 112 8,7 C 11,0 C 2,3 km/h (1 Bft)
07.05.2013 07:00 10,9 C 87 % 1018,1 hPa 0,0 l/m 1,6 km/h (1 Bft) S-SO 157 8,8 C 11,1 C 2,1 km/h (1 Bft)
07.05.2013 07:05 11,0 C 86 % 1018,2 hPa 0,0 l/m 1,8 km/h (1 Bft) SO 135 8,7 C 11,1 C 2,3 km/h (1 Bft)
07.05.2013 07:10 11,1 C 86 % 1018,2 hPa 0,0 l/m 2,6 km/h (1 Bft) SO 135 8,8 C 11,2 C 2,7 km/h (1 Bft)
07.05.2013 07:15 11,1 C 86 % 1018,2 hPa 0,0 l/m 3,2 km/h (1 Bft) S 180 8,8 C 11,3 C 3,4 km/h (1 Bft)
07.05.2013 07:20 11,2 C 86 % 1018,2 hPa 0,0 l/m 2,7 km/h (1 Bft) S-SO 157 8,9 C 11,4 C 3,5 km/h (1 Bft)
07.05.2013 07:25 11,4 C 86 % 1018,3 hPa 0,0 l/m 3,2 km/h (1 Bft) SO 135 9,1 C 11,5 C 5,8 km/h (2 Bft)
07.05.2013 07:30 11,6 C 85 % 1018,3 hPa 0,0 l/m 3,7 km/h (1 Bft) S 180 9,2 C 11,7 C 3,7 km/h (1 Bft)
07.05.2013 07:35 11,9 C 85 % 1018,3 hPa 0,0 l/m 3,5 km/h (1 Bft) S-SO 157 9,5 C 11,9 C 4,8 km/h (1 Bft)
07.05.2013 07:40 12,3 C 84 % 1018,3 hPa 0,0 l/m 3,9 km/h (1 Bft) S 180 9,7 C 12,3 C 6,9 km/h (2 Bft)
07.05.2013 07:45 12,3 C 83 % 1018,2 hPa 0,0 l/m 4,7 km/h (1 Bft) S-SO 157 9,5 C 12,4 C 4,3 km/h (1 Bft)
07.05.2013 07:50 12,7 C 83 % 1018,2 hPa 0,0 l/m 4,3 km/h (1 Bft) S 180 9,9 C 12,8 C 2,1 km/h (1 Bft)
07.05.2013 07:55 13,1 C 82 % 1018,2 hPa 0,0 l/m 3,4 km/h (1 Bft) S 180 10,1 C 13,1 C 3,2 km/h (1 Bft)
07.05.2013 08:00 13,2 C 80 % 1018,2 hPa 0,0 l/m 2,4 km/h (1 Bft) S 180 9,8 C 13,5 C 3,4 km/h (1 Bft)
07.05.2013 08:05 13,3 C 80 % 1018,6 hPa 0,0 l/m 2,9 km/h (1 Bft) S-SW 202 9,9 C 13,7 C 5,0 km/h (1 Bft)
07.05.2013 08:10 13,3 C 79 % 1018,6 hPa 0,0 l/m 3,4 km/h (1 Bft) S-SO 157 9,7 C 13,8 C 7,7 km/h (2 Bft)
07.05.2013 08:15 13,0 C 78 % 1018,6 hPa 0,0 l/m 4,2 km/h (1 Bft) S-SO 157 9,3 C 13,7 C 3,2 km/h (1 Bft)
07.05.2013 08:20 13,3 C 79 % 1018,6 hPa 0,0 l/m 3,5 km/h (1 Bft) S 180 9,7 C 13,7 C 3,5 km/h (1 Bft)
07.05.2013 08:25 13,3 C 78 % 1018,5 hPa 0,0 l/m 3,5 km/h (1 Bft) SO 135 9,5 C 13,8 C 10,1 km/h (2 Bft)
07.05.2013 08:30 13,6 C 77 % 1018,5 hPa 0,0 l/m 5,0 km/h (1 Bft) S 180 9,6 C 13,9 C 6,6 km/h (2 Bft)
07.05.2013 08:35 13,7 C 75 % 1018,5 hPa 0,0 l/m 5,8 km/h (2 Bft) S 180 9,3 C 14,0 C 11,6 km/h (2 Bft)
07.05.2013 08:40 13,9 C 75 % 1018,5 hPa 0,0 l/m 6,6 km/h (2 Bft) S 180 9,5 C 14,1 C 8,4 km/h (2 Bft)
07.05.2013 08:45 13,9 C 75 % 1018,1 hPa 0,0 l/m 6,4 km/h (2 Bft) S-SO 157 9,5 C 14,1 C 12,6 km/h (3 Bft)
07.05.2013 08:50 14,0 C 75 % 1018,1 hPa 0,0 l/m 5,0 km/h (1 Bft) S-SW 202 9,6 C 14,2 C 7,6 km/h (2 Bft)
07.05.2013 08:55 14,1 C 75 % 1018,1 hPa 0,0 l/m 4,2 km/h (1 Bft) S 180 9,7 C 14,5 C 1,9 km/h (1 Bft)
07.05.2013 09:00 14,0 C 74 % 1018,1 hPa 0,0 l/m 3,9 km/h (1 Bft) SW 225 9,4 C 14,7 C 6,1 km/h (2 Bft)
07.05.2013 09:05 14,0 C 74 % 1018,6 hPa 0,0 l/m 4,0 km/h (1 Bft) SW 225 9,4 C 14,7 C 5,1 km/h (1 Bft)
07.05.2013 09:10 14,4 C 73 % 1018,6 hPa 0,0 l/m 4,2 km/h (1 Bft) S 180 9,6 C 14,9 C 5,0 km/h (1 Bft)
07.05.2013 09:15 14,9 C 73 % 1018,6 hPa 0,0 l/m 3,5 km/h (1 Bft) S 180 10,1 C 15,2 C 6,4 km/h (2 Bft)
07.05.2013 09:20 15,0 C 71 % 1018,6 hPa 0,0 l/m 3,5 km/h (1 Bft) S-SO 157 9,8 C 15,6 C 5,0 km/h (1 Bft)
07.05.2013 09:25 14,8 C 72 % 1018,7 hPa 0,0 l/m 2,9 km/h (1 Bft) W-SW 247 9,8 C 15,8 C 1,8 km/h (1 Bft)
07.05.2013 09:30 14,6 C 71 % 1018,7 hPa 0,0 l/m 1,0 km/h (0 Bft) W-SW 247 9,4 C 16,1 C 2,6 km/h (1 Bft)
07.05.2013 09:35 14,7 C 70 % 1018,7 hPa 0,0 l/m 1,9 km/h (1 Bft) S 180 9,3 C 16,1 C 2,3 km/h (1 Bft)
07.05.2013 09:40 15,6 C 70 % 1018,7 hPa 0,0 l/m 2,6 km/h (1 Bft) SO 135 10,1 C 16,4 C 0,0 km/h (0 Bft)
07.05.2013 09:45 15,3 C 68 % 1018,8 hPa 0,0 l/m 2,4 km/h (1 Bft) O 90 9,4 C 16,7 C 6,1 km/h (2 Bft)
07.05.2013 09:50 15,5 C 66 % 1018,8 hPa 0,0 l/m 4,5 km/h (1 Bft) S 180 9,2 C 16,5 C 6,8 km/h (2 Bft)
07.05.2013 09:55 15,8 C 67 % 1018,8 hPa 0,0 l/m 5,1 km/h (1 Bft) S 180 9,7 C 16,7 C 5,6 km/h (1 Bft)
07.05.2013 10:00 15,6 C 65 % 1018,8 hPa 0,0 l/m 4,8 km/h (1 Bft) W-SW 247 9,0 C 16,6 C 6,4 km/h (2 Bft)
07.05.2013 10:05 15,6 C 66 % 1018,6 hPa 0,0 l/m 4,8 km/h (1 Bft) O-SO 112 9,3 C 16,4 C 2,4 km/h (1 Bft)
07.05.2013 10:10 15,8 C 66 % 1018,6 hPa 0,0 l/m 4,0 km/h (1 Bft) W-SW 247 9,5 C 16,6 C 4,5 km/h (1 Bft)
07.05.2013 10:15 16,3 C 66 % 1018,6 hPa 0,0 l/m 3,5 km/h (1 Bft) S-SW 202 9,9 C 16,7 C 5,8 km/h (2 Bft)
07.05.2013 10:20 16,0 C 64 % 1018,6 hPa 0,0 l/m 4,8 km/h (1 Bft) W-SW 247 9,2 C 16,8 C 6,1 km/h (2 Bft)
07.05.2013 10:25 16,0 C 65 % 1018,7 hPa 0,0 l/m 5,1 km/h (1 Bft) W-SW 247 9,4 C 16,7 C 4,0 km/h (1 Bft)
07.05.2013 10:30 15,6 C 67 % 1018,7 hPa 0,0 l/m 5,0 km/h (1 Bft) W-SW 247 9,5 C 16,5 C 4,0 km/h (1 Bft)
07.05.2013 10:35 15,5 C 66 % 1018,7 hPa 0,0 l/m 5,8 km/h (2 Bft) S 180 9,2 C 16,4 C 11,9 km/h (2 Bft)
07.05.2013 10:40 15,6 C 67 % 1018,7 hPa 0,0 l/m 5,6 km/h (1 Bft) W-SW 247 9,5 C 16,3 C 6,8 km/h (2 Bft)
07.05.2013 10:45 15,3 C 66 % 1018,7 hPa 0,0 l/m 5,8 km/h (2 Bft) S-SO 157 9,0 C 16,2 C 7,2 km/h (2 Bft)
07.05.2013 10:50 15,6 C 66 % 1018,7 hPa 0,0 l/m 6,1 km/h (2 Bft) S-SW 202 9,3 C 16,1 C 5,5 km/h (1 Bft)
07.05.2013 10:55 15,9 C 66 % 1018,7 hPa 0,0 l/m 5,8 km/h (2 Bft) W-SW 247 9,6 C 16,3 C 4,3 km/h (1 Bft)
07.05.2013 11:00 16,1 C 64 % 1018,7 hPa 0,0 l/m 6,0 km/h (2 Bft) W-SW 247 9,3 C 16,7 C 6,3 km/h (2 Bft)
07.05.2013 11:05 16,0 C 65 % 1018,7 hPa 0,0 l/m 6,1 km/h (2 Bft) S 180 9,4 C 16,7 C 8,4 km/h (2 Bft)
07.05.2013 11:10 16,1 C 66 % 1018,7 hPa 0,0 l/m 5,1 km/h (1 Bft) S-SW 202 9,7 C 16,7 C 5,6 km/h (1 Bft)
07.05.2013 11:15 16,3 C 64 % 1018,7 hPa 0,0 l/m 5,3 km/h (1 Bft) SO 135 9,5 C 17,0 C 7,6 km/h (2 Bft)
07.05.2013 11:20 16,1 C 64 % 1018,7 hPa 0,0 l/m 5,5 km/h (1 Bft) S 180 9,3 C 16,9 C 3,7 km/h (1 Bft)
07.05.2013 11:25 15,8 C 64 % 1018,4 hPa 0,0 l/m 5,6 km/h (1 Bft) S-SW 202 9,0 C 16,7 C 6,9 km/h (2 Bft)
07.05.2013 11:30 15,8 C 65 % 1018,4 hPa 0,0 l/m 5,5 km/h (1 Bft) S-SO 157 9,2 C 16,5 C 8,0 km/h (2 Bft)
07.05.2013 11:35 16,2 C 63 % 1018,4 hPa 0,0 l/m 5,3 km/h (1 Bft) S-SW 202 9,1 C 16,6 C 12,9 km/h (3 Bft)
07.05.2013 11:40 16,4 C 62 % 1018,4 hPa 0,0 l/m 5,1 km/h (1 Bft) SO 135 9,1 C 16,9 C 6,3 km/h (2 Bft)
07.05.2013 11:45 16,5 C 63 % 1018,9 hPa 0,0 l/m 5,0 km/h (1 Bft) S 180 9,4 C 17,1 C 3,2 km/h (1 Bft)
07.05.2013 11:50 16,3 C 60 % 1018,9 hPa 0,0 l/m 5,8 km/h (2 Bft) S-SW 202 8,5 C 17,1 C 8,7 km/h (2 Bft)
07.05.2013 11:55 16,3 C 62 % 1018,9 hPa 0,0 l/m 5,5 km/h (1 Bft) S-SW 202 9,0 C 17,1 C 6,6 km/h (2 Bft)
07.05.2013 12:00 16,0 C 62 % 1018,9 hPa 0,0 l/m 5,5 km/h (1 Bft) S 180 8,7 C 16,9 C 7,7 km/h (2 Bft)
07.05.2013 12:05 15,8 C 61 % 1018,6 hPa 0,0 l/m 6,3 km/h (2 Bft) S-SW 202 8,3 C 16,8 C 9,0 km/h (2 Bft)
07.05.2013 12:10 15,9 C 61 % 1018,6 hPa 0,0 l/m 7,2 km/h (2 Bft) S-SW 202 8,4 C 16,1 C 8,0 km/h (2 Bft)
07.05.2013 12:15 16,0 C 61 % 1018,6 hPa 0,0 l/m 5,6 km/h (1 Bft) S-SW 202 8,5 C 16,7 C 13,8 km/h (3 Bft)
07.05.2013 12:20 16,0 C 60 % 1018,6 hPa 0,0 l/m 4,0 km/h (1 Bft) S 180 8,2 C 16,8 C 3,7 km/h (1 Bft)
07.05.2013 12:25 15,8 C 61 % 1018,9 hPa 0,0 l/m 3,7 km/h (1 Bft) S 180 8,3 C 16,8 C 6,8 km/h (2 Bft)
07.05.2013 12:30 15,8 C 63 % 1018,9 hPa 0,0 l/m 4,0 km/h (1 Bft) S 180 8,8 C 16,6 C 5,1 km/h (1 Bft)
07.05.2013 12:35 15,5 C 62 % 1018,9 hPa 0,0 l/m 4,3 km/h (1 Bft) SO 135 8,3 C 16,5 C 4,2 km/h (1 Bft)
07.05.2013 12:40 15,1 C 63 % 1018,9 hPa 0,0 l/m 4,5 km/h (1 Bft) S 180 8,1 C 16,1 C 5,3 km/h (1 Bft)
07.05.2013 12:45 15,2 C 63 % 1018,8 hPa 0,0 l/m 3,9 km/h (1 Bft) S 180 8,2 C 15,9 C 3,1 km/h (1 Bft)
07.05.2013 12:50 15,3 C 65 % 1018,8 hPa 0,0 l/m 3,1 km/h (1 Bft) S-SO 157 8,8 C 15,9 C 6,0 km/h (2 Bft)
07.05.2013 12:55 15,1 C 63 % 1018,8 hPa 0,0 l/m 3,5 km/h (1 Bft) S 180 8,1 C 15,8 C 2,4 km/h (1 Bft)
07.05.2013 13:00 15,0 C 64 % 1018,8 hPa 0,0 l/m 4,3 km/h (1 Bft) S-SO 157 8,2 C 15,7 C 7,2 km/h (2 Bft)
07.05.2013 13:05 15,0 C 65 % 1018,7 hPa 0,0 l/m 4,3 km/h (1 Bft) S-SO 157 8,5 C 15,6 C 4,2 km/h (1 Bft)
07.05.2013 13:10 14,8 C 66 % 1018,7 hPa 0,0 l/m 4,0 km/h (1 Bft) S 180 8,5 C 15,5 C 5,0 km/h (1 Bft)
07.05.2013 13:15 14,7 C 66 % 1018,7 hPa 0,0 l/m 3,4 km/h (1 Bft) S-SW 202 8,4 C 15,3 C 1,6 km/h (1 Bft)
07.05.2013 13:20 14,8 C 68 % 1018,7 hPa 0,0 l/m 3,5 km/h (1 Bft) S-SW 202 9,0 C 15,3 C 7,1 km/h (2 Bft)
07.05.2013 13:25 14,8 C 67 % 1018,8 hPa 0,0 l/m 3,9 km/h (1 Bft) W-SW 247 8,7 C 15,3 C 5,3 km/h (1 Bft)
07.05.2013 13:30 14,7 C 67 % 1018,8 hPa 0,0 l/m 4,3 km/h (1 Bft) W-SW 247 8,6 C 15,3 C 4,8 km/h (1 Bft)
07.05.2013 13:35 14,7 C 67 % 1018,8 hPa 0,0 l/m 3,9 km/h (1 Bft) S-SO 157 8,6 C 15,2 C 2,9 km/h (1 Bft)
07.05.2013 13:40 14,6 C 68 % 1018,8 hPa 0,0 l/m 3,5 km/h (1 Bft) S-SO 157 8,8 C 15,2 C 4,8 km/h (1 Bft)
07.05.2013 13:45 14,6 C 68 % 1018,7 hPa 0,0 l/m 3,2 km/h (1 Bft) SW 225 8,8 C 15,1 C 5,0 km/h (1 Bft)
07.05.2013 13:50 14,5 C 69 % 1018,7 hPa 0,0 l/m 4,2 km/h (1 Bft) S 180 8,9 C 15,1 C 2,6 km/h (1 Bft)
07.05.2013 13:55 14,4 C 69 % 1018,7 hPa 0,0 l/m 3,5 km/h (1 Bft) O-SO 112 8,8 C 15,0 C 4,5 km/h (1 Bft)
07.05.2013 14:00 14,2 C 69 % 1018,7 hPa 0,0 l/m 1,4 km/h (1 Bft) O 90 8,6 C 15,0 C 0,0 km/h (0 Bft)
07.05.2013 14:05 14,2 C 70 % 1019,0 hPa 0,0 l/m 1,1 km/h (1 Bft) N-NW 337 8,8 C 14,9 C 0,0 km/h (0 Bft)
07.05.2013 14:10 14,2 C 71 % 1019,0 hPa 0,0 l/m 1,4 km/h (1 Bft) SO 135 9,0 C 14,8 C 3,2 km/h (1 Bft)
07.05.2013 14:15 14,1 C 71 % 1019,0 hPa 0,0 l/m 2,3 km/h (1 Bft) S 180 8,9 C 14,7 C 5,1 km/h (1 Bft)
07.05.2013 14:20 13,5 C 73 % 1019,0 hPa 0,0 l/m 4,7 km/h (1 Bft) S 180 8,8 C 14,0 C 8,0 km/h (2 Bft)
07.05.2013 14:25 13,1 C 75 % 1018,9 hPa 0,0 l/m 4,7 km/h (1 Bft) S-SO 157 8,8 C 13,3 C 4,3 km/h (1 Bft)
07.05.2013 14:30 12,7 C 76 % 1018,9 hPa 0,0 l/m 4,2 km/h (1 Bft) S-SW 202 8,6 C 12,2 C 0,0 km/h (0 Bft)
07.05.2013 14:35 12,3 C 78 % 1018,9 hPa 0,0 l/m 3,1 km/h (1 Bft) O 90 8,6 C 12,0 C 0,0 km/h (0 Bft)
07.05.2013 14:40 12,3 C 82 % 1018,9 hPa 0,0 l/m 1,1 km/h (1 Bft) S-SO 157 9,3 C 11,9 C 2,4 km/h (1 Bft)
07.05.2013 14:45 12,5 C 84 % 1018,9 hPa 0,0 l/m 1,1 km/h (1 Bft) O 90 9,9 C 12,0 C 1,9 km/h (1 Bft)
07.05.2013 14:50 12,5 C 87 % 1018,9 hPa 0,0 l/m 1,8 km/h (1 Bft) O-SO 112 10,4 C 12,3 C 1,9 km/h (1 Bft)
07.05.2013 14:55 12,5 C 88 % 1018,9 hPa 0,0 l/m 1,8 km/h (1 Bft) O-SO 112 10,6 C 12,2 C 0,0 km/h (0 Bft)
07.05.2013 15:00 12,3 C 88 % 1018,9 hPa 0,0 l/m 1,8 km/h (1 Bft) O-SO 112 10,4 C 12,1 C 1,9 km/h (1 Bft)
07.05.2013 15:05 12,3 C 89 % 1018,6 hPa 0,0 l/m 1,3 km/h (1 Bft) NO 45 10,5 C 12,1 C 1,8 km/h (1 Bft)
07.05.2013 15:10 12,5 C 89 % 1018,6 hPa 0,0 l/m 1,3 km/h (1 Bft) O-SO 112 10,7 C 12,3 C 0,0 km/h (0 Bft)
07.05.2013 15:15 12,7 C 89 % 1018,6 hPa 0,0 l/m 1,1 km/h (1 Bft) O-SO 112 10,9 C 12,4 C 0,0 km/h (0 Bft)
07.05.2013 15:20 12,8 C 89 % 1018,6 hPa 0,0 l/m 0,8 km/h (0 Bft) O-SO 112 11,0 C 12,7 C 1,8 km/h (1 Bft)
07.05.2013 15:25 12,9 C 89 % 1018,4 hPa 0,0 l/m 0,8 km/h (0 Bft) S 180 11,1 C 12,8 C 0,0 km/h (0 Bft)
07.05.2013 15:30 12,8 C 89 % 1018,4 hPa 0,0 l/m 1,1 km/h (1 Bft) SO 135 11,0 C 12,8 C 0,0 km/h (0 Bft)
07.05.2013 15:35 12,8 C 89 % 1018,4 hPa 0,0 l/m 1,1 km/h (1 Bft) S-SO 157 11,0 C 12,8 C 2,1 km/h (1 Bft)
07.05.2013 15:40 12,9 C 90 % 1018,4 hPa 0,0 l/m 0,8 km/h (0 Bft) O-SO 112 11,3 C 12,9 C 2,1 km/h (1 Bft)
07.05.2013 15:45 13,1 C 89 % 1018,3 hPa 0,0 l/m 1,3 km/h (1 Bft) S 180 11,3 C 13,0 C 2,3 km/h (1 Bft)
07.05.2013 15:50 13,3 C 89 % 1018,3 hPa 0,0 l/m 1,8 km/h (1 Bft) S 180 11,5 C 13,3 C 5,3 km/h (1 Bft)
07.05.2013 15:55 13,4 C 89 % 1018,3 hPa 0,0 l/m 2,3 km/h (1 Bft) S-SW 202 11,6 C 13,4 C 4,8 km/h (1 Bft)
07.05.2013 16:00 13,4 C 88 % 1018,3 hPa 0,0 l/m 2,7 km/h (1 Bft) O-SO 112 11,5 C 13,5 C 3,7 km/h (1 Bft)
07.05.2013 16:05 13,5 C 88 % 1018,1 hPa 0,0 l/m 2,7 km/h (1 Bft) S-SO 157 11,6 C 13,5 C 4,8 km/h (1 Bft)
07.05.2013 16:10 13,5 C 87 % 1018,1 hPa 0,0 l/m 3,4 km/h (1 Bft) S-SO 157 11,4 C 13,5 C 4,8 km/h (1 Bft)
07.05.2013 16:15 13,6 C 87 % 1018,1 hPa 0,0 l/m 2,9 km/h (1 Bft) S 180 11,5 C 13,6 C 2,6 km/h (1 Bft)
07.05.2013 16:20 13,6 C 87 % 1018,1 hPa 0,0 l/m 2,6 km/h (1 Bft) S-SO 157 11,5 C 13,9 C 3,4 km/h (1 Bft)
07.05.2013 16:25 13,6 C 87 % 1017,8 hPa 0,0 l/m 2,4 km/h (1 Bft) S 180 11,5 C 14,0 C 1,9 km/h (1 Bft)
07.05.2013 16:30 13,6 C 87 % 1017,8 hPa 0,0 l/m 1,9 km/h (1 Bft) S-SO 157 11,5 C 14,3 C 2,7 km/h (1 Bft)
07.05.2013 16:35 13,7 C 87 % 1017,8 hPa 0,0 l/m 1,8 km/h (1 Bft) S 180 11,6 C 14,3 C 2,1 km/h (1 Bft)
07.05.2013 16:40 13,7 C 87 % 1017,8 hPa 0,0 l/m 2,4 km/h (1 Bft) S-SO 157 11,6 C 14,4 C 3,2 km/h (1 Bft)
07.05.2013 16:45 13,7 C 87 % 1017,8 hPa 0,0 l/m 3,2 km/h (1 Bft) SO 135 11,6 C 14,3 C 3,2 km/h (1 Bft)
07.05.2013 16:50 13,6 C 86 % 1017,8 hPa 0,0 l/m 3,2 km/h (1 Bft) S 180 11,3 C 14,3 C 1,9 km/h (1 Bft)
07.05.2013 16:55 13,8 C 87 % 1017,8 hPa 0,0 l/m 2,3 km/h (1 Bft) S 180 11,7 C 14,3 C 1,8 km/h (1 Bft)
07.05.2013 17:00 13,7 C 87 % 1017,8 hPa 0,0 l/m 2,4 km/h (1 Bft) S-SO 157 11,6 C 14,4 C 4,7 km/h (1 Bft)
07.05.2013 17:05 13,7 C 87 % 1017,8 hPa 0,0 l/m 2,9 km/h (1 Bft) S 180 11,6 C 14,3 C 4,5 km/h (1 Bft)
07.05.2013 17:10 13,9 C 88 % 1017,8 hPa 0,0 l/m 2,1 km/h (1 Bft) S-SO 157 11,9 C 14,4 C 2,4 km/h (1 Bft)
07.05.2013 17:15 14,0 C 88 % 1017,8 hPa 0,0 l/m 1,4 km/h (1 Bft) S-SO 157 12,0 C 14,4 C 0,0 km/h (0 Bft)
07.05.2013 17:20 13,9 C 88 % 1017,8 hPa 0,0 l/m 1,8 km/h (1 Bft) S-SW 202 11,9 C 14,5 C 1,6 km/h (1 Bft)
07.05.2013 17:25 14,0 C 88 % 1017,8 hPa 0,0 l/m 1,6 km/h (1 Bft) S-SO 157 12,0 C 14,5 C 2,1 km/h (1 Bft)
07.05.2013 17:30 14,0 C 88 % 1017,8 hPa 0,0 l/m 1,4 km/h (1 Bft) S-SO 157 12,0 C 14,6 C 2,6 km/h (1 Bft)
07.05.2013 17:35 14,0 C 88 % 1017,8 hPa 0,0 l/m 2,3 km/h (1 Bft) S-SO 157 12,0 C 14,6 C 3,7 km/h (1 Bft)
07.05.2013 17:40 14,0 C 88 % 1017,8 hPa 0,0 l/m 3,5 km/h (1 Bft) S 180 12,0 C 14,4 C 4,0 km/h (1 Bft)
07.05.2013 17:45 14,0 C 88 % 1017,8 hPa 0,0 l/m 3,7 km/h (1 Bft) S-SO 157 12,0 C 14,3 C 4,3 km/h (1 Bft)
07.05.2013 17:50 13,9 C 87 % 1017,8 hPa 0,0 l/m 3,7 km/h (1 Bft) SO 135 11,8 C 14,3 C 2,4 km/h (1 Bft)
07.05.2013 17:55 13,9 C 86 % 1017,8 hPa 0,0 l/m 3,2 km/h (1 Bft) SO 135 11,6 C 14,3 C 2,1 km/h (1 Bft)
07.05.2013 18:00 13,9 C 87 % 1017,8 hPa 0,0 l/m 1,6 km/h (1 Bft) S 180 11,8 C 14,3 C 3,1 km/h (1 Bft)
07.05.2013 18:05 13,8 C 88 % 1017,9 hPa 0,0 l/m 1,6 km/h (1 Bft) S 180 11,8 C 14,3 C 1,6 km/h (1 Bft)
07.05.2013 18:10 13,8 C 88 % 1017,9 hPa 0,0 l/m 1,4 km/h (1 Bft) S 180 11,8 C 14,3 C 0,0 km/h (0 Bft)
07.05.2013 18:15 13,7 C 88 % 1017,9 hPa 0,0 l/m 1,1 km/h (1 Bft) O-SO 112 11,7 C 14,3 C 2,4 km/h (1 Bft)
07.05.2013 18:20 13,7 C 87 % 1017,9 hPa 0,0 l/m 1,4 km/h (1 Bft) S 180 11,6 C 14,1 C 2,7 km/h (1 Bft)
07.05.2013 18:25 13,6 C 88 % 1018,2 hPa 0,0 l/m 2,3 km/h (1 Bft) S-SO 157 11,6 C 14,1 C 3,1 km/h (1 Bft)
07.05.2013 18:30 13,4 C 87 % 1018,2 hPa 0,0 l/m 2,9 km/h (1 Bft) S-SO 157 11,3 C 13,9 C 2,6 km/h (1 Bft)
07.05.2013 18:35 13,2 C 87 % 1018,2 hPa 0,0 l/m 2,9 km/h (1 Bft) S-SW 202 11,1 C 13,7 C 3,4 km/h (1 Bft)
07.05.2013 18:40 12,9 C 88 % 1018,2 hPa 0,0 l/m 1,4 km/h (1 Bft) S 180 11,0 C 13,5 C 0,0 km/h (0 Bft)
07.05.2013 18:45 12,8 C 88 % 1018,4 hPa 0,0 l/m 1,6 km/h (1 Bft) S-SO 157 10,9 C 13,2 C 5,8 km/h (2 Bft)
07.05.2013 18:50 12,6 C 87 % 1018,4 hPa 0,0 l/m 2,6 km/h (1 Bft) S 180 10,5 C 12,6 C 6,0 km/h (2 Bft)
07.05.2013 18:55 12,5 C 87 % 1018,4 hPa 0,0 l/m 2,9 km/h (1 Bft) S 180 10,4 C 12,3 C 2,4 km/h (1 Bft)
07.05.2013 19:00 12,3 C 87 % 1018,4 hPa 0,0 l/m 2,7 km/h (1 Bft) S 180 10,2 C 12,1 C 4,2 km/h (1 Bft)
07.05.2013 19:05 12,2 C 87 % 1018,6 hPa 0,0 l/m 2,6 km/h (1 Bft) S 180 10,1 C 12,1 C 1,9 km/h (1 Bft)
07.05.2013 19:10 12,2 C 87 % 1018,6 hPa 0,0 l/m 2,4 km/h (1 Bft) S 180 10,1 C 12,1 C 4,0 km/h (1 Bft)
07.05.2013 19:15 12,1 C 87 % 1018,6 hPa 0,0 l/m 2,3 km/h (1 Bft) S 180 10,0 C 12,1 C 2,1 km/h (1 Bft)
07.05.2013 19:20 12,0 C 87 % 1018,6 hPa 0,0 l/m 2,6 km/h (1 Bft) SO 135 9,9 C 12,1 C 2,9 km/h (1 Bft)
07.05.2013 19:25 12,1 C 87 % 1018,8 hPa 0,0 l/m 2,3 km/h (1 Bft) S-SO 157 10,0 C 12,1 C 2,6 km/h (1 Bft)
07.05.2013 19:30 12,1 C 87 % 1018,8 hPa 0,0 l/m 2,3 km/h (1 Bft) SW 225 10,0 C 12,2 C 5,1 km/h (1 Bft)
07.05.2013 19:35 12,1 C 87 % 1018,8 hPa 0,0 l/m 2,9 km/h (1 Bft) S 180 10,0 C 12,3 C 2,3 km/h (1 Bft)
07.05.2013 19:40 12,1 C 87 % 1018,8 hPa 0,0 l/m 2,6 km/h (1 Bft) S-SO 157 10,0 C 12,3 C 4,5 km/h (1 Bft)
07.05.2013 19:45 12,0 C 86 % 1019,2 hPa 0,0 l/m 2,4 km/h (1 Bft) O-SO 112 9,7 C 12,2 C 3,2 km/h (1 Bft)
07.05.2013 19:50 11,9 C 86 % 1019,2 hPa 0,0 l/m 2,7 km/h (1 Bft) S 180 9,6 C 12,2 C 0,0 km/h (0 Bft)
07.05.2013 19:55 11,8 C 86 % 1019,2 hPa 0,0 l/m 2,1 km/h (1 Bft) O 90 9,5 C 12,1 C 1,9 km/h (1 Bft)
07.05.2013 20:00 11,7 C 86 % 1019,2 hPa 0,0 l/m 1,1 km/h (1 Bft) S-SO 157 9,4 C 12,0 C 0,0 km/h (0 Bft)
07.05.2013 20:05 11,6 C 86 % 1019,7 hPa 0,0 l/m 1,1 km/h (1 Bft) S 180 9,3 C 11,9 C 1,8 km/h (1 Bft)
07.05.2013 20:10 11,4 C 86 % 1019,7 hPa 0,0 l/m 1,0 km/h (0 Bft) O-SO 112 9,1 C 11,8 C 0,0 km/h (0 Bft)
07.05.2013 20:15 11,3 C 86 % 1019,7 hPa 0,0 l/m 1,0 km/h (0 Bft) NO 45 9,0 C 11,6 C 3,4 km/h (1 Bft)
07.05.2013 20:20 11,2 C 85 % 1019,7 hPa 0,0 l/m 0,6 km/h (0 Bft) N 360 8,8 C 11,5 C 2,4 km/h (1 Bft)
07.05.2013 20:25 11,1 C 85 % 1019,6 hPa 0,0 l/m 0,8 km/h (0 Bft) O 90 8,7 C 11,4 C 3,4 km/h (1 Bft)
07.05.2013 20:30 11,0 C 84 % 1019,6 hPa 0,0 l/m 1,0 km/h (0 Bft) O 90 8,4 C 11,3 C 0,0 km/h (0 Bft)
07.05.2013 20:35 11,1 C 83 % 1019,6 hPa 0,0 l/m 1,3 km/h (1 Bft) O-SO 112 8,3 C 11,3 C 0,0 km/h (0 Bft)
07.05.2013 20:40 11,0 C 84 % 1019,6 hPa 0,0 l/m 1,0 km/h (0 Bft) O 90 8,4 C 11,2 C 0,0 km/h (0 Bft)
07.05.2013 20:45 11,0 C 83 % 1018,8 hPa 0,0 l/m 1,0 km/h (0 Bft) S 180 8,2 C 11,1 C 2,4 km/h (1 Bft)
07.05.2013 20:50 10,9 C 83 % 1018,8 hPa 0,0 l/m 1,0 km/h (0 Bft) N-NO 22 8,1 C 11,2 C 0,0 km/h (0 Bft)
07.05.2013 20:55 10,9 C 83 % 1018,8 hPa 0,0 l/m 0,8 km/h (0 Bft) NW 315 8,1 C 11,1 C 3,4 km/h (1 Bft)
07.05.2013 21:00 10,9 C 83 % 1018,8 hPa 0,0 l/m 1,3 km/h (1 Bft) O 90 8,1 C 11,1 C 1,6 km/h (1 Bft)
07.05.2013 21:05 10,9 C 83 % 1018,8 hPa 0,0 l/m 1,4 km/h (1 Bft) N-NO 22 8,1 C 11,1 C 0,0 km/h (0 Bft)
07.05.2013 21:10 10,8 C 84 % 1018,8 hPa 0,0 l/m 0,6 km/h (0 Bft) NO 45 8,2 C 10,9 C 0,0 km/h (0 Bft)
07.05.2013 21:15 10,6 C 84 % 1018,8 hPa 0,0 l/m 0,5 km/h (0 Bft) NO 45 8,0 C 10,8 C 0,0 km/h (0 Bft)
07.05.2013 21:20 10,6 C 84 % 1018,8 hPa 0,0 l/m 0,3 km/h (0 Bft) NO 45 8,0 C 10,7 C 0,0 km/h (0 Bft)
07.05.2013 21:25 10,6 C 85 % 1018,9 hPa 0,0 l/m 0,5 km/h (0 Bft) NW 315 8,2 C 10,6 C 0,0 km/h (0 Bft)
07.05.2013 21:30 10,5 C 85 % 1018,9 hPa 0,0 l/m 0,2 km/h (0 Bft) N-NO 22 8,1 C 10,6 C 0,0 km/h (0 Bft)
07.05.2013 21:35 10,6 C 85 % 1018,9 hPa 0,0 l/m 0,3 km/h (0 Bft) W 270 8,2 C 10,6 C 2,1 km/h (1 Bft)
07.05.2013 21:40 10,6 C 85 % 1018,9 hPa 0,0 l/m 0,8 km/h (0 Bft) O 90 8,2 C 10,7 C 0,0 km/h (0 Bft)
07.05.2013 21:45 10,6 C 86 % 1019,2 hPa 0,0 l/m 0,8 km/h (0 Bft) S 180 8,4 C 10,7 C 1,9 km/h (1 Bft)
07.05.2013 21:50 10,6 C 86 % 1019,2 hPa 0,0 l/m 0,5 km/h (0 Bft) W-NW 292 8,4 C 10,7 C 0,0 km/h (0 Bft)
07.05.2013 21:55 10,6 C 86 % 1019,2 hPa 0,0 l/m 0,5 km/h (0 Bft) W-NW 292 8,4 C 10,7 C 0,0 km/h (0 Bft)
07.05.2013 22:00 10,7 C 86 % 1019,2 hPa 0,0 l/m 1,0 km/h (0 Bft) N-NW 337 8,5 C 10,7 C 2,9 km/h (1 Bft)
07.05.2013 22:05 10,6 C 86 % 1019,4 hPa 0,0 l/m 1,0 km/h (0 Bft) W-SW 247 8,4 C 10,7 C 1,9 km/h (1 Bft)
07.05.2013 22:10 10,5 C 86 % 1019,4 hPa 0,0 l/m 0,6 km/h (0 Bft) NO 45 8,3 C 10,6 C 0,0 km/h (0 Bft)
07.05.2013 22:15 10,4 C 86 % 1019,4 hPa 0,0 l/m 0,3 km/h (0 Bft) W 270 8,2 C 10,6 C 1,6 km/h (1 Bft)
07.05.2013 22:20 10,3 C 86 % 1019,4 hPa 0,0 l/m 0,2 km/h (0 Bft) W 270 8,1 C 10,3 C 2,1 km/h (1 Bft)
07.05.2013 22:25 10,2 C 86 % 1019,4 hPa 0,0 l/m 0,2 km/h (0 Bft) S-SW 202 8,0 C 10,2 C 0,0 km/h (0 Bft)
07.05.2013 22:30 10,0 C 86 % 1019,4 hPa 0,0 l/m 0,3 km/h (0 Bft) W 270 7,8 C 10,0 C 0,0 km/h (0 Bft)
07.05.2013 22:35 10,0 C 87 % 1019,4 hPa 0,0 l/m 0,3 km/h (0 Bft) W 270 7,9 C 10,0 C 0,0 km/h (0 Bft)
07.05.2013 22:40 10,0 C 87 % 1019,4 hPa 0,0 l/m 0,3 km/h (0 Bft) W-SW 247 7,9 C 9,9 C 0,0 km/h (0 Bft)
07.05.2013 22:45 10,0 C 87 % 1019,6 hPa 0,0 l/m 0,3 km/h (0 Bft) O 90 7,9 C 9,9 C 0,0 km/h (0 Bft)
07.05.2013 22:50 9,9 C 87 % 1019,6 hPa 0,0 l/m 0,3 km/h (0 Bft) S-SO 157 7,8 C 9,9 C 0,0 km/h (0 Bft)
07.05.2013 22:55 10,0 C 87 % 1019,6 hPa 0,0 l/m 0,2 km/h (0 Bft) O-NO 67 7,9 C 10,0 C 0,0 km/h (0 Bft)
07.05.2013 23:00 10,0 C 87 % 1019,6 hPa 0,0 l/m 0,6 km/h (0 Bft) W-NW 292 7,9 C 10,0 C 3,4 km/h (1 Bft)
07.05.2013 23:05 10,2 C 87 % 1019,6 hPa 0,0 l/m 1,0 km/h (0 Bft) W-SW 247 8,1 C 10,0 C 1,6 km/h (1 Bft)
07.05.2013 23:10 10,2 C 87 % 1019,6 hPa 0,0 l/m 1,4 km/h (1 Bft) O-SO 112 8,1 C 10,2 C 0,0 km/h (0 Bft)
07.05.2013 23:15 10,2 C 87 % 1019,6 hPa 0,0 l/m 1,0 km/h (0 Bft) SO 135 8,1 C 10,2 C 2,7 km/h (1 Bft)
07.05.2013 23:20 10,2 C 87 % 1019,6 hPa 0,0 l/m 0,3 km/h (0 Bft) O-NO 67 8,1 C 10,2 C 0,0 km/h (0 Bft)
07.05.2013 23:25 10,2 C 87 % 1019,7 hPa 0,0 l/m 0,3 km/h (0 Bft) W-NW 292 8,1 C 10,3 C 0,0 km/h (0 Bft)
07.05.2013 23:30 10,2 C 87 % 1019,7 hPa 0,0 l/m 0,8 km/h (0 Bft) S-SW 202 8,1 C 10,3 C 4,0 km/h (1 Bft)
07.05.2013 23:35 10,2 C 87 % 1019,7 hPa 0,0 l/m 1,4 km/h (1 Bft) O-NO 67 8,1 C 10,3 C 0,0 km/h (0 Bft)
07.05.2013 23:40 10,2 C 87 % 1019,7 hPa 0,0 l/m 1,6 km/h (1 Bft) N-NO 22 8,1 C 10,4 C 1,9 km/h (1 Bft)
07.05.2013 23:45 10,2 C 87 % 1019,9 hPa 0,0 l/m 1,4 km/h (1 Bft) NO 45 8,1 C 10,4 C 4,7 km/h (1 Bft)
07.05.2013 23:50 10,2 C 87 % 1019,9 hPa 0,0 l/m 1,1 km/h (1 Bft) S 180 8,1 C 10,4 C 1,9 km/h (1 Bft)
07.05.2013 23:55 10,3 C 86 % 1019,9 hPa 0,0 l/m 1,6 km/h (1 Bft) SW 225 8,1 C 10,5 C 2,3 km/h (1 Bft)
_ Min-Zeit 05:10 12:20 06:00 - 22:55 - - 22:30 05:20 23:35
Minimum _ 9,7 C 60 % 1017,3 hPa - 0,2 km/h (0 Bft) - - 7,8 C 9,7 C 0,0 km/h (0 Bft)
_ Max-Zeit 11:45 15:40 23:55 23:55 12:10 - - 17:45 11:55 12:15
Maximum _ 16,5 C 90 % 1019,9 hPa 0,0 l/m 7,2 km/h
S-SW (2 Bft)
- - 12,0 C 17,1 C 13,8 km/h
S-SW (3 Bft)
Durchschnitt _ 12,4 C 82 % 1018,4 hPa #0,0 l/m 2,4 km/h (1 Bft) S - 9,2 C 12,7 C 3,1 km/h (1 Bft)